Yunyao-1 40

operational
NORAD ID: 62732 Int'l Des: NNA 2025-013 Owner: YYAO Country: CN
LEOCIRCULARRETROGRADESSO

Yunyao-1 40について

説明を読み込み中...

リアルタイム位置

3D地球を読み込み中...

次回通過

高度履歴

Altitude vs Time

uPlot chart will show altitude changes over time

軌道要素

1 62732U 25013D 26062.19180466 .00005192 00000-0 31879-3 0 9990
2 62732 97.6441 231.6131 0009373 41.1852 319.0083 15.10507990 61270
Epoch: Mar 3, 2026 • Age: 9 hours

現在のステータス

高度 561.3 km
速度 7.58 km/s
衛星直下点 -65.16°S, 48.81°W
打ち上げ日 Jan 20, 2025
運用期間 1.1 years
タイプ other

技術仕様

分類 Payload
質量 50.00 kg
乾燥質量 50.00 kg
総質量 50.00 kg
長さ 2.00 m
直径 1.50 m
スパン 5.00 m
形状 Box + pan
製造者 CGSTL
バスタイプ YY-1
フェーズステータス In Orbit
所有者/国 YYAO/CN

大規模コンステレーション

Loading constellations...